Regional Weather Roundup
Issued by NWS

Home | Current Version | Previous Version | Text Only | Print | Product List | Glossary Off
Versions: 1 2 3 4 5 6 7 8 9 10 11 12 13 14 15 16 17 18 19 20 21 22 23 24 25 26 27 28 29 30 31 32 33 34 35 36 37 38 39 40 41 42 43 44 45 46 47 48 49 50

000
ASUS43 KFSD 272002
RWRSD

WEATHER ROUNDUP FOR SOUTH DAKOTA
NATIONAL WEATHER SERVICE SIOUX FALLS SD
200 PM CST THU NOV 27 2014

NOTE: "FAIR" INDICATES FEW OR NO CLOUDS BELOW 12,000 FEET WITH NO
SIGNIFICANT WEATHER AND/OR OBSTRUCTIONS TO VISIBILITY.


SDZ001>005-009-010-012>017-272100-
NORTHWEST AND NORTH CENTRAL SOUTH DAKOTA

CITY           SKY/WX    TMP DP  RH WIND       PRES   REMARKS
BUFFALO          N/A     28  21  75 S15       29.83F WCI  16
FAITH            N/A     21  15  78 SE15      29.99F WCI   8
MOBRIDGE       CLOUDY    18  11  74 S21       30.09F WCI   1
$$

SDZ012>016-024>037-041>051-057-063-072>074-272100-
SOUTHWEST AND SOUTH CENTRAL SOUTH DAKOTA

CITY           SKY/WX    TMP DP  RH WIND       PRES   REMARKS
RAPID CTY ARPT PTSUNNY   31  26  82 S8        29.94F WCI  23
PIERRE         CLOUDY    21  13  71 SE20      30.10F WCI   6
CUSTER         MOSUNNY   49  23  36 W8        29.95F
ELLSWORTH AFB  PTSUNNY   31  26  81 S7        29.93F WCI  25
PHILIP         CLOUDY    31  21  66 SE10      30.02F WCI  22
PINE RIDGE     PTSUNNY   49  32  52 SW8       29.97F
WINNER         CLOUDY    30  16  56 SE15G25   30.10F WCI  19
$$

SDZ004>011-016>023-039-040-272100-
NORTHEAST SOUTH DAKOTA

CITY           SKY/WX    TMP DP  RH WIND       PRES   REMARKS
ABERDEEN       CLOUDY     9  -2  61 SE13      30.27F WCI  -7
WATERTOWN      PTSUNNY    8  -3  61 S13       30.27F WCI  -8
SISSETON         N/A      3  -6  66 S15       30.34F WCI -16
$$

SDZ017-020-022-023-036>040-048>070-272100-
SOUTHEAST SOUTH DAKOTA

CITY           SKY/WX    TMP DP  RH WIND       PRES   REMARKS
SIOUX FALLS    CLOUDY    10  -1  61 SE9       30.33F WCI  -3
HURON          CLOUDY    13   1  59 SE12G21   30.27F WCI  -1
MITCHELL       MOSUNNY   15   5  64 SE18      30.26F WCI  -2
YANKTON        MOSUNNY   18   7  62 E14       30.33F WCI   4
$$

ABBREVIATIONS USED IN REMARKS
   TC - TEMPERATURE IN CELSIUS
  WCI - WIND CHILL INDEX
   HX - HEAT INDEX
  VSB - VISIBILITY



USA.gov is the U.S. government's official web portal to all federal, state and local government web resources and services.